Appleton, MN

6:59 PM CDT on October 19, 2017 (GMT -0500)
Appleton Municipal

Weather History for KAQP - June, 2012

Change the Weather History Date:

Monday, June 4, 2012

  Actual Average Record
Temperature  
Mean Temperature 70 °F -  
Max Temperature 84 °F 72 °F 93 °F (1999)
Min Temperature 55 °F 51 °F 39 °F (1998)
Cooling Degree Days 4    
Growing Degree Days 20 (Base 50)    
Moisture  
Dew Point 47 °F    
Average Humidity 52    
Maximum Humidity 94    
Minimum Humidity 14    
Precipitation  
Precipitation 0.00 in - - ()
Sea Level Pressure  
Sea Level Pressure 29.92 in    
Wind  
Wind Speed 4 mph (North)    
Max Wind Speed 17 mph    
Max Gust Speed 23 mph    
Visibility 10 miles    
Events      
Averages and records for this station are not official NWS values.
T = Trace of Precipitation, MM = Missing Value Source: NWS Daily Summary

Daily Weather History Graph

Daily Weather History Graph

Search for Another Location

Airport or City:

Trip Planner

Search our weather history database for the weather conditions in past years. The results will help you decide how hot, cold, wet, or windy it might be!

Date:

Astronomy

Jun. 04, 2012 Rise Set
Actual Time 5:37 AM CDT 9:07 PM CDT
Civil Twilight 5:01 AM CDT 9:44 PM CDT
Nautical Twilight 4:12 AM CDT 10:33 PM CDT
Astronomical Twilight 3:09 AM CDT 11:36 PM CDT
Moon 9:37 PM CDT (6/4) 5:46 AM CDT (6/4)
Length of Visible Light 16h 43m
Length of Day
15h 29m
Full, 100% of the Moon is Illuminated
Jun 4
Full
Jun 11
Last Quarter
Jun 19
New
Jun 26
First Quarter
Jul 3
Full

Hourly Weather History & Observations

Time (CDT) Temp. Dew Point Humidity Pressure Visibility Wind Dir Wind Speed Gust Speed Precip Events Conditions
12:14 AM 60.8 °F 53.6 °F 77% 29.82 in 10.0 mi Calm Calm - N/A   Clear
12:35 AM 60.8 °F 53.6 °F 77% 29.82 in 10.0 mi Calm Calm - N/A   Clear
12:54 AM 60.8 °F 53.6 °F 77% 29.83 in 10.0 mi Calm Calm - N/A   Clear
1:15 AM 60.8 °F 53.6 °F 77% 29.83 in 10.0 mi Calm Calm - N/A   Clear
1:34 AM 60.8 °F 53.6 °F 77% 29.84 in 10.0 mi Calm Calm - N/A   Clear
1:55 AM 59.0 °F 53.6 °F 82% 29.84 in 10.0 mi Calm Calm - N/A   Clear
2:15 AM 59.0 °F 53.6 °F 82% 29.84 in 10.0 mi Calm Calm - N/A   Clear
2:34 AM 57.2 °F 53.6 °F 88% 29.84 in 10.0 mi Calm Calm - N/A   Clear
2:55 AM 57.2 °F 53.6 °F 88% 29.85 in 10.0 mi Calm Calm - N/A   Clear
3:14 AM 57.2 °F 53.6 °F 88% 29.85 in 10.0 mi Calm Calm - N/A   Clear
3:34 AM 57.2 °F 53.6 °F 88% 29.85 in 10.0 mi Calm Calm - N/A   Clear
3:55 AM 55.4 °F 53.6 °F 94% 29.85 in 10.0 mi Calm Calm - N/A   Clear
4:15 AM 57.2 °F 53.6 °F 88% 29.86 in 10.0 mi Calm Calm - N/A   Clear
4:35 AM 57.2 °F 53.6 °F 88% 29.87 in 10.0 mi Calm Calm - N/A   Clear
4:55 AM 57.2 °F 53.6 °F 88% 29.87 in 10.0 mi Calm Calm - N/A   Clear
5:15 AM 55.4 °F 53.6 °F 94% 29.87 in 10.0 mi Calm Calm - N/A   Clear
5:34 AM 55.4 °F 53.6 °F 94% 29.87 in 10.0 mi SSE 5.8 mph - N/A   Clear
5:54 AM 55.4 °F 53.6 °F 94% 29.88 in 10.0 mi SSE 3.5 mph - N/A   Clear
6:14 AM 55.4 °F 53.6 °F 94% 29.89 in 10.0 mi Calm Calm - N/A   Clear
6:34 AM 57.2 °F 53.6 °F 88% 29.89 in 10.0 mi Calm Calm - N/A   Clear
6:55 AM 59.0 °F 55.4 °F 88% 29.90 in 10.0 mi Calm Calm - N/A   Clear
7:15 AM 62.6 °F 57.2 °F 82% 29.90 in 10.0 mi West 4.6 mph - N/A   Clear
7:34 AM 64.4 °F 57.2 °F 77% 29.91 in 10.0 mi WNW 8.1 mph - N/A   Clear
7:54 AM 66.2 °F 57.2 °F 73% 29.91 in 10.0 mi WNW 6.9 mph - N/A   Clear
8:14 AM 68.0 °F 57.2 °F 68% 29.92 in 10.0 mi NW 9.2 mph - N/A   Clear
8:34 AM 69.8 °F 55.4 °F 60% 29.94 in 10.0 mi NW 9.2 mph - N/A   Clear
8:55 AM 69.8 °F 55.4 °F 60% 29.94 in 10.0 mi North 8.1 mph - N/A   Clear
9:15 AM 71.6 °F 55.4 °F 57% 29.94 in 10.0 mi NNW 8.1 mph - N/A   Clear
9:34 AM 73.4 °F 55.4 °F 53% 29.94 in 10.0 mi North 9.2 mph - N/A   Clear
9:55 AM 73.4 °F 53.6 °F 50% 29.94 in 10.0 mi North 9.2 mph - N/A   Clear
10:17 AM 75.2 °F 55.4 °F 50% 29.94 in 10.0 mi NNW 9.2 mph - N/A   Clear
10:34 AM 75.2 °F 55.4 °F 50% 29.94 in 10.0 mi NNW 12.7 mph - N/A   Clear
10:55 AM 77.0 °F 53.6 °F 44% 29.94 in 10.0 mi NNW 11.5 mph 18.4 mph N/A   Clear
11:15 AM 78.8 °F 53.6 °F 42% 29.94 in 10.0 mi North 12.7 mph - N/A   Clear
11:35 AM 78.8 °F 51.8 °F 39% 29.94 in 10.0 mi North 11.5 mph - N/A   Clear
11:54 AM 80.6 °F 46.4 °F 30% 29.94 in 10.0 mi North 16.1 mph 20.7 mph N/A   Clear
12:14 PM 80.6 °F 42.8 °F 26% 29.94 in 10.0 mi North 10.4 mph 19.6 mph N/A   Clear
12:34 PM 80.6 °F 44.6 °F 28% 29.95 in 10.0 mi NNW 8.1 mph 19.6 mph N/A   Clear
12:54 PM 80.6 °F 42.8 °F 26% 29.95 in 10.0 mi North 12.7 mph 17.3 mph N/A   Clear
1:14 PM 82.4 °F 42.8 °F 25% 29.95 in 10.0 mi NW 10.4 mph - N/A   Clear
1:35 PM 82.4 °F 42.8 °F 25% 29.95 in 10.0 mi NNW 10.4 mph 18.4 mph N/A   Clear
1:54 PM 82.4 °F 39.2 °F 21% 29.95 in 10.0 mi North 12.7 mph 18.4 mph N/A   Clear
2:14 PM 82.4 °F 39.2 °F 21% 29.95 in 10.0 mi North 9.2 mph 17.3 mph N/A   Clear
2:35 PM 82.4 °F 41.0 °F 23% 29.95 in 10.0 mi NNW 8.1 mph 11.5 mph N/A   Clear
2:55 PM 82.4 °F 39.2 °F 21% 29.94 in 10.0 mi NNW 9.2 mph 20.7 mph N/A   Clear
3:14 PM 82.4 °F 35.6 °F 19% 29.94 in 10.0 mi NNW 10.4 mph 23.0 mph N/A   Clear
3:34 PM 84.2 °F 35.6 °F 18% 29.94 in 10.0 mi NNW 11.5 mph 17.3 mph N/A   Clear
3:54 PM 84.2 °F 33.8 °F 16% 29.94 in 10.0 mi North 13.8 mph 19.6 mph N/A   Clear
4:14 PM 82.4 °F 33.8 °F 17% 29.93 in 10.0 mi North 11.5 mph 18.4 mph N/A   Clear
4:35 PM 84.2 °F 30.2 °F 14% 29.93 in 10.0 mi North 10.4 mph 19.6 mph N/A   Clear
4:55 PM 82.4 °F 33.8 °F 17% 29.93 in 10.0 mi NNW 11.5 mph 17.3 mph N/A   Clear
5:14 PM 84.2 °F 35.6 °F 18% 29.93 in 10.0 mi NNW 16.1 mph 19.6 mph N/A   Clear
5:34 PM 82.4 °F 32.0 °F 16% 29.93 in 10.0 mi North 13.8 mph 18.4 mph N/A   Clear
5:55 PM 82.4 °F 33.8 °F 17% 29.93 in 10.0 mi North 17.3 mph 21.9 mph N/A   Clear
6:15 PM 82.4 °F 35.6 °F 19% 29.93 in 10.0 mi North 16.1 mph 19.6 mph N/A   Clear
6:54 PM 82.4 °F 35.6 °F 19% 29.93 in 10.0 mi NNE 13.8 mph - N/A   Clear
7:15 PM 82.4 °F 35.6 °F 19% 29.93 in 10.0 mi NNE 11.5 mph - N/A   Clear
7:35 PM 80.6 °F 37.4 °F 21% 29.93 in 10.0 mi NNE 9.2 mph - N/A   Clear
7:54 PM 78.8 °F 39.2 °F 24% 29.94 in 10.0 mi NNE 8.1 mph - N/A   Clear
8:14 PM 77.0 °F 39.2 °F 26% 29.94 in 10.0 mi NNE 8.1 mph - N/A   Clear
8:34 PM 75.2 °F 42.8 °F 31% 29.95 in 10.0 mi NNE 9.2 mph - N/A   Clear
8:54 PM 73.4 °F 44.6 °F 36% 29.95 in 10.0 mi NNE 4.6 mph - N/A   Clear
9:14 PM 69.8 °F 46.4 °F 43% 29.95 in 7.0 mi NE 4.6 mph - N/A   Clear
9:55 PM 64.4 °F 48.2 °F 56% 29.96 in 10.0 mi Calm Calm - N/A   Clear
10:15 PM 66.2 °F 46.4 °F 49% 29.96 in 10.0 mi ENE 3.5 mph - N/A   Clear
10:35 PM 66.2 °F 44.6 °F 46% 29.96 in 10.0 mi Calm Calm - N/A   Clear
10:54 PM 62.6 °F 48.2 °F 59% 29.96 in 10.0 mi Calm Calm - N/A   Clear
11:14 PM 60.8 °F 50.0 °F 68% 29.96 in 10.0 mi Calm Calm - N/A   Clear
11:34 PM 62.6 °F 51.8 °F 68% 29.97 in 10.0 mi Calm Calm - N/A   Clear
11:54 PM 62.6 °F 51.8 °F 68% 29.97 in 10.0 mi Calm Calm - N/A   Clear